FENGYUN 1C DEB, 31938

Orbit data source: Space-Track

FENGYUN 1C DEB, 31938 is space debris in SSO originally from a launch on Mon, 10 May 1999 UTC launched from the Taiyaun Space Center, China (TSC). Fengyun 1C debris stems from the Chinese weather satellite Fengyun-1C, which was intentionally destroyed by a Chinese anti-satellite missile in 2007. This event dramatically increased the amount of space debris, with thousands of trackable fragments posing hazards to satellites and human spaceflight. The Fengyun 1C debris cloud has become a focal point in discussions about space sustainability and the need for international regulations to prevent the creation of new debris.

Loading next visibility...
Identifier
31938, 1999-025CMP
Orbit
SSO
Country
Flag of CNCN / PRC
Related business
Manufacturer
Unknown
Mission
Spacecraft
Bus & Motor
Unknown
Mass
Unknown
Launch date (UTC)
1999-05-10 (27 years ago)
Launch vehicle
Unknown
Launch site
Taiyaun Space Center, China (TSC)
Object type
Payload
Rocket body
Debris
Shape & HBR
Unknown shape, 0.1 m
Radar Cross Section
Small (<0.1 m²)

Expand to show TLE details & history
Last TLE update: 8 hours ago

TLE from 8 hours ago
0 FENGYUN 1C DEB
1 31938U 99025CMP 26121.89451330  .00004823  00000-0  33885-3 0  9991
2 31938  98.9063 177.8749 0146029 332.5777  26.7787 14.97455969 12256
Epoch: 2026-05-01T21:28Z
TLE epoch observation values (Epoch: 2026-05-01T21:28:05.949Z)
Latitude
-0.00001°
Longitude
-3.9701°
Altitude
487.418 km
Speed
7.671 km/s
True Right ascension
11h 51m 29s
True Declination
0° 00' 00"
Sunlit
Object was in full shadow at epoch
Visualization orbit readout
Latitude
Unknown
Longitude
Unknown
Altitude
Unknown
Speed
Unknown
Apparent Right ascension
Unknown
Apparent Declination
Unknown
Sunlit
N/A
Visualization observer readout
Local Sidereal Time
13:08:34
Azimuth
Unknown
Elevation
Unknown
Doppler factor
Unknown
Orbital elements
Apogee altitude
673.315 km
Perigee altitude
470.335 km
Semi-major axis
6,949.962 km
Eccentricity
0.0146
Inclination
98.9063°
RAAN
177.8749°
Arg. of periapsis
332.5777°
True anomaly
27.54509°
Mean anomaly
26.7787°
Eccentric anomaly
27.16064°
Mean motion
3.74602 °/min
Orbital period
96.1 mins
BSTAR
0.00033885
Loading maneuver chart data...
Computing Atmospheric mass density...
Loading historical data...
Loading historical data...
Loading historical data...
Loading historical data...
Loading historical data...
Loading historical data...
Loading historical data...

Documentation

Showing up to 5 results
|